Carbondale, IL

9:01 AM CDT on September 23, 2019 (GMT -0500)
Southern Illinois

Weather History for KMDH - August, 2019

Change the Weather History Date:

Tuesday, August 20, 2019

  Actual Average Record
Temperature  
Mean Temperature 81 °F -  
Max Temperature 93 °F 87 °F 104 °F (1936)
Min Temperature 69 °F 62 °F 46 °F (1953)
Cooling Degree Days 16    
Growing Degree Days 31 (Base 50)    
Moisture  
Dew Point 72 °F    
Average Humidity 91    
Maximum Humidity 100    
Minimum Humidity 63    
Precipitation  
Precipitation 0.10 in - - ()
Sea Level Pressure  
Sea Level Pressure 30.03 in    
Wind  
Wind Speed 3 mph (SSE)    
Max Wind Speed 25 mph    
Max Gust Speed 28 mph    
Visibility 6 miles    
Events Rain , Thunderstorm    
Averages and records for this station are not official NWS values.
T = Trace of Precipitation, MM = Missing Value Source: NWS Daily Summary

Daily Weather History Graph

Daily Weather History Graph

Search for Another Location

Airport or City:

Astronomy

Aug. 20, 2019 Rise Set
Actual Time 6:16 AM CDT 7:43 PM CDT
Civil Twilight 5:49 AM CDT 8:11 PM CDT
Nautical Twilight 5:15 AM CDT 8:44 PM CDT
Astronomical Twilight 4:40 AM CDT 9:18 PM CDT
Moon 10:37 PM CDT (8/20) 10:49 AM CDT (8/20)
Length of Visible Light 14h 22m
Length of Day
13h 26m
Waning Gibbous, 77% of the Moon is Illuminated
Aug 20
Waning Gibbous
Aug 23
Last Quarter
Aug 30
New
Sep 5
First Quarter
Sep 13
Full

Hourly Weather History & Observations

Time (CDT) Temp. Heat Index Dew Point Humidity Pressure Visibility Wind Dir Wind Speed Gust Speed Precip Events Conditions
12:52 AM 75.9 °F - 75.0 °F 97% 30.02 in 5.0 mi Calm Calm - N/A   Clear
1:44 AM 73.9 °F - 73.0 °F 97% 30.03 in 2.5 mi SSE 3.5 mph - N/A   Clear
1:52 AM 75.0 °F - 73.0 °F 94% 30.01 in 3.0 mi Calm Calm - N/A   Clear
1:59 AM 73.9 °F - 73.0 °F 97% 30.03 in 1.5 mi Calm Calm - N/A   Clear
2:22 AM 75.9 °F - 73.9 °F 94% 30.02 in 3.0 mi Calm Calm - N/A   Clear
2:34 AM 73.9 °F - 73.0 °F 97% 30.02 in 1.5 mi SSE 3.5 mph - N/A   Clear
2:44 AM 73.0 °F - 72.0 °F 96% 30.02 in 3.0 mi South 3.5 mph - N/A   Clear
2:52 AM 73.9 °F - 73.0 °F 97% 30.01 in 1.2 mi Calm Calm - N/A   Partly Cloudy
3:03 AM 73.9 °F - 73.0 °F 97% 30.02 in 3.0 mi Calm Calm - N/A   Clear
3:44 AM 75.0 °F - 73.9 °F 96% 30.01 in 2.5 mi Calm Calm - N/A   Clear
3:52 AM 75.0 °F - 73.9 °F 96% 30.00 in 0.8 mi South 3.5 mph - N/A   Clear
4:04 AM 73.9 °F - 73.0 °F 97% 30.02 in 2.0 mi Calm Calm - N/A   Clear
4:11 AM 73.9 °F - 73.0 °F 97% 30.02 in 3.0 mi Calm Calm - N/A   Clear
4:52 AM 73.9 °F - 73.0 °F 97% 30.01 in 3.0 mi Calm Calm - N/A   Clear
5:16 AM 73.0 °F - 72.0 °F 96% 30.01 in 2.5 mi SE 3.5 mph - N/A   Clear
5:24 AM 73.9 °F - 73.0 °F 97% 30.01 in 4.0 mi SE 3.5 mph - N/A   Clear
5:52 AM 73.9 °F - 73.0 °F 97% 29.99 in 5.0 mi Calm Calm - N/A   Clear
6:39 AM 73.9 °F - 73.0 °F 97% 30.02 in 2.0 mi Calm Calm - N/A   Clear
6:47 AM 73.4 °F - 73.4 °F 100% 30.03 in 1.8 mi Calm Calm - N/A   Clear
6:52 AM 75.0 °F - 73.9 °F 96% 30.01 in 1.5 mi Calm Calm - N/A   Clear
6:56 AM 73.9 °F - 73.0 °F 97% 30.02 in 4.0 mi South 3.5 mph - N/A   Clear
7:52 AM 79.0 °F - 75.9 °F 90% 30.04 in 6.0 mi Calm Calm - N/A   Clear
8:52 AM 82.9 °F 90.8 °F 75.9 °F 79% 30.06 in 10.0 mi SSW 9.2 mph - N/A   Clear
9:52 AM 87.1 °F 97.3 °F 75.9 °F 69% 30.04 in 10.0 mi SSW 9.2 mph - N/A   Clear
10:52 AM 90.0 °F 102.5 °F 77.0 °F 65% 30.04 in 10.0 mi SW 6.9 mph - N/A   Clear
11:52 AM 91.0 °F 104.2 °F 77.0 °F 63% 30.04 in 10.0 mi South 6.9 mph - N/A   Clear
12:52 PM 91.9 °F 107.3 °F 78.1 °F 64% 30.04 in 10.0 mi South 6.9 mph - N/A   Clear
1:52 PM 78.1 °F - 66.9 °F 68% 30.04 in 10.0 mi North 25.3 mph - N/A Thunderstorm Mostly Cloudy
2:11 PM 73.9 °F - 66.9 °F 79% 30.07 in 10.0 mi NNE 11.5 mph 27.6 mph N/A Thunderstorm Thunderstorm
2:21 PM 72.0 °F - 69.1 °F 91% 30.07 in 3.0 mi NNE 10.4 mph 27.6 mph 0.06 in Rain , Thunderstorm Thunderstorms and Rain
2:25 PM 72.0 °F - 69.1 °F 91% 30.07 in 4.0 mi NE 6.9 mph 19.6 mph 0.06 in Rain , Thunderstorm Light Rain
2:33 PM 72.0 °F - 69.1 °F 91% 30.07 in 10.0 mi ENE 11.5 mph - 0.07 in Rain , Thunderstorm Light Thunderstorms and Rain
2:48 PM 71.6 °F - 69.8 °F 94% 30.08 in 10.0 mi NNE 6.9 mph - 0.07 in Thunderstorm Thunderstorm
2:52 PM 71.1 °F - 69.1 °F 93% 30.09 in 10.0 mi North 6.9 mph - 0.07 in Thunderstorm Thunderstorm
3:20 PM 72.0 °F - 69.1 °F 91% 30.13 in 2.5 mi NNW 9.2 mph - 0.01 in Rain , Thunderstorm Light Thunderstorms and Rain
3:29 PM 71.1 °F - 69.1 °F 93% 30.10 in 5.0 mi East 8.1 mph - 0.02 in Rain , Thunderstorm Light Thunderstorms and Rain
3:44 PM 71.1 °F - 69.1 °F 93% 30.10 in 10.0 mi NW 3.5 mph - 0.02 in Rain , Thunderstorm Light Rain
3:52 PM 71.1 °F - 69.1 °F 93% 30.09 in 10.0 mi Calm Calm - 0.03 in Rain , Thunderstorm Light Rain
4:03 PM 71.1 °F - 69.1 °F 93% 30.08 in 10.0 mi SE 5.8 mph - 0.00 in Rain , Thunderstorm Light Thunderstorms and Rain
4:43 PM 71.1 °F - 69.1 °F 93% 30.06 in 10.0 mi South 6.9 mph - 0.00 in   Scattered Clouds
4:52 PM 71.1 °F - 69.1 °F 93% 30.07 in 10.0 mi South 8.1 mph - 0.00 in   Partly Cloudy
5:52 PM 73.0 °F - 70.0 °F 90% 30.02 in 10.0 mi South 5.8 mph - N/A   Clear
6:52 PM 73.0 °F - 70.0 °F 90% 29.97 in 10.0 mi South 9.2 mph - N/A   Clear
7:52 PM 73.0 °F - 69.1 °F 87% 29.97 in 10.0 mi South 8.1 mph - N/A   Clear
8:52 PM 72.0 °F - 69.1 °F 91% 29.98 in 10.0 mi South 4.6 mph - N/A   Clear
9:52 PM 71.1 °F - 68.0 °F 90% 29.99 in 10.0 mi NW 4.6 mph - N/A   Clear
10:52 PM 71.1 °F - 68.0 °F 90% 30.00 in 10.0 mi Calm Calm - N/A   Clear
11:52 PM 69.1 °F - 68.0 °F 96% 30.01 in 10.0 mi Calm Calm - N/A   Clear